• In Kazakhstan
  • List of Countries
  • For 7 days
  • Water Temperature
  • Satellite Maps
  • Weather Map
  • News
  • Weather Widgets
  • user-avatar
    Login

    Hourly Weather Ischgl

    Today, 21 April, Sunday

    Time Temperature Precipitation Wind Pressure Humidity
    00:00 -5°C° 0 mm 2 mps 575 mmHg 64%
    01:00 -5°C° 0 mm 2 mps 574 mmHg 66%
    02:00 -7°C° 0 mm 3 mps 574 mmHg 68%
    03:00 -7°C° 0 mm 3 mps 573 mmHg 70%
    04:00 -7°C° 0 mm 3 mps 573 mmHg 72%
    05:00 -6°C° 0 mm 3 mps 573 mmHg 72%
    06:00 -5°C° 0 mm 3 mps 574 mmHg 72%
    07:00 -4°C° 0 mm 3 mps 574 mmHg 72%
    08:00 -1°C° 0 mm 2 mps 575 mmHg 76%
    09:00 +1°C° 0 mm 2 mps 575 mmHg 80%
    10:00 +3°C° 0 mm 2 mps 576 mmHg 84%
    11:00 +4°C° 0 mm 2 mps 576 mmHg 80%
    12:00 +5°C° 0 mm 2 mps 576 mmHg 77%
    13:00 +5°C° 0 mm 2 mps 576 mmHg 73%
    14:00 +5°C° 0 mm 2 mps 576 mmHg 71%
    15:00 +6°C° 0 mm 2 mps 575 mmHg 68%
    16:00 +6°C° 0 mm 2 mps 575 mmHg 66%
    17:00 +4°C° 0 mm 2 mps 574 mmHg 69%
    18:00 +2°C° 0 mm 2 mps 573 mmHg 72%
    19:00 -1°C° 0 mm 2 mps 572 mmHg 75%
    20:00 -2°C° 0 mm 2 mps 572 mmHg 76%
    21:00 -4°C° 0 mm 3 mps 571 mmHg 76%
    22:00 -5°C° 0 mm 3 mps 571 mmHg 76%
    23:00 -5°C° 0 mm 3 mps 571 mmHg 77%

    Tomorrow, 22 April, Monday

    Time Temperature Precipitation Wind Pressure Humidity
    00:00 -5°C° 0 mm 3 mps 571 mmHg 78%
    01:00 -5°C° 0 mm 3 mps 571 mmHg 80%
    02:00 -5°C° 0 mm 3 mps 570 mmHg 78%
    03:00 -5°C° 0 mm 3 mps 570 mmHg 77%
    04:00 -6°C° 0 mm 3 mps 570 mmHg 75%
    05:00 -5°C° 0 mm 3 mps 570 mmHg 74%
    06:00 -4°C° 0 mm 3 mps 570 mmHg 73%
    07:00 -2°C° 0 mm 3 mps 570 mmHg 72%
    08:00 0°C° 0 mm 3 mps 571 mmHg 68%
    09:00 +2°C° 0 mm 3 mps 571 mmHg 64%
    10:00 +4°C° 0 mm 3 mps 571 mmHg 60%
    11:00 +5°C° 0 mm 3 mps 571 mmHg 57%
    12:00 +5°C° 0 mm 3 mps 571 mmHg 54%
    13:00 +7°C° 0 mm 3 mps 571 mmHg 51%
    14:00 +7°C° 0 mm 3 mps 571 mmHg 53%
    15:00 +7°C° 0 mm 3 mps 570 mmHg 54%
    16:00 +7°C° 0 mm 3 mps 570 mmHg 56%
    17:00 +4°C° 0 mm 3 mps 568 mmHg 62%
    18:00 +2°C° 0 mm 3 mps 567 mmHg 68%
    19:00 0°C° 0 mm 3 mps 566 mmHg 75%
    20:00 0°C° 0 mm 3 mps 566 mmHg 78%
    21:00 -1°C° 0 mm 3 mps 565 mmHg 81%
    22:00 -2°C° 0 mm 3 mps 565 mmHg 84%
    23:00 -2°C° 0 mm 3 mps 565 mmHg 86%

    Day after tomorrow, 23 April, Tuesday

    Time Temperature Precipitation Wind Pressure Humidity
    00:00 -2°C° 0 mm 3 mps 564 mmHg 88%
    01:00 -2°C° 0 mm 3 mps 564 mmHg 91%
    02:00 -4°C° 0 mm 3 mps 564 mmHg 90%
    03:00 -4°C° 0 mm 3 mps 563 mmHg 90%
    04:00 -4°C° 0 mm 3 mps 563 mmHg 89%
    05:00 -2°C° 0 mm 3 mps 563 mmHg 86%
    06:00 -2°C° 0 mm 3 mps 563 mmHg 83%
    07:00 -1°C° 0 mm 3 mps 563 mmHg 80%
    08:00 0°C° 0.1 mm 3 mps 564 mmHg 76%
    09:00 +3°C° 0.1 mm 2 mps 564 mmHg 73%
    10:00 +4°C° 0.1 mm 2 mps 565 mmHg 69%
    11:00 +4°C° 0.2 mm 2 mps 565 mmHg 67%
    12:00 +4°C° 0.2 mm 3 mps 566 mmHg 65%
    13:00 +5°C° 0.2 mm 3 mps 566 mmHg 63%
    14:00 +5°C° 0.2 mm 3 mps 566 mmHg 64%
    15:00 +4°C° 0.2 mm 3 mps 566 mmHg 65%
    16:00 +4°C° 0.2 mm 3 mps 566 mmHg 66%
    17:00 +3°C° 0 mm 3 mps 565 mmHg 72%
    18:00 +2°C° 0 mm 3 mps 565 mmHg 77%
    19:00 +1°C° 0 mm 2 mps 564 mmHg 83%
    20:00 0°C° 0 mm 3 mps 564 mmHg 84%
    21:00 -1°C° 0 mm 3 mps 565 mmHg 86%
    22:00 -1°C° 0 mm 3 mps 565 mmHg 88%
    23:00 -1°C° 0 mm 3 mps 565 mmHg 89%

    24 April, Wednesday

    Time Temperature Precipitation Wind Pressure Humidity
    00:00 -2°C° 0 mm 3 mps 565 mmHg 89%
    01:00 -2°C° 0 mm 3 mps 565 mmHg 90%
    02:00 -2°C° 0 mm 3 mps 565 mmHg 90%
    03:00 -2°C° 0 mm 3 mps 566 mmHg 89%
    04:00 -2°C° 0 mm 3 mps 566 mmHg 89%
    05:00 -1°C° 0 mm 3 mps 567 mmHg 86%
    06:00 0°C° 0 mm 3 mps 567 mmHg 83%
    07:00 +1°C° 0 mm 3 mps 568 mmHg 80%
    08:00 +2°C° 0 mm 3 mps 569 mmHg 73%
    09:00 +4°C° 0 mm 4 mps 570 mmHg 67%
    10:00 +5°C° 0 mm 4 mps 571 mmHg 60%
    11:00 +6°C° 0 mm 4 mps 571 mmHg 59%
    12:00 +6°C° 0 mm 5 mps 572 mmHg 57%
    13:00 +7°C° 0 mm 5 mps 572 mmHg 55%
    14:00 +6°C° 0 mm 5 mps 571 mmHg 57%
    15:00 +6°C° 0 mm 5 mps 571 mmHg 58%
    16:00 +6°C° 0 mm 5 mps 571 mmHg 60%
    17:00 +5°C° 0 mm 5 mps 570 mmHg 66%
    18:00 +2°C° 0 mm 5 mps 570 mmHg 73%
    19:00 +1°C° 0 mm 5 mps 570 mmHg 80%
    20:00 0°C° 0.2 mm 5 mps 570 mmHg 81%
    21:00 0°C° 0.2 mm 4 mps 571 mmHg 83%
    22:00 0°C° 0.2 mm 4 mps 571 mmHg 85%
    23:00 -1°C° 0.1 mm 4 mps 571 mmHg 86%

    25 April, Thursday

    Time Temperature Precipitation Wind Pressure Humidity
    00:00 -1°C° 0.1 mm 4 mps 572 mmHg 87%
    01:00 -1°C° 0.1 mm 4 mps 572 mmHg 88%
    02:00 -2°C° 0 mm 4 mps 572 mmHg 88%
    03:00 -2°C° 0 mm 4 mps 571 mmHg 88%
    04:00 -3°C° 0 mm 4 mps 571 mmHg 87%
    05:00 -2°C° 0 mm 4 mps 571 mmHg 83%
    06:00 -1°C° 0 mm 4 mps 572 mmHg 79%
    07:00 0°C° 0 mm 4 mps 572 mmHg 75%
    08:00 +1°C° 0 mm 5 mps 573 mmHg 70%
    09:00 +3°C° 0 mm 5 mps 573 mmHg 64%
    10:00 +6°C° 0 mm 5 mps 574 mmHg 59%
    11:00 +6°C° 0 mm 5 mps 574 mmHg 55%
    12:00 +7°C° 0 mm 5 mps 574 mmHg 51%
    13:00 +7°C° 0 mm 5 mps 574 mmHg 47%
    14:00 +7°C° 0 mm 5 mps 574 mmHg 47%
    15:00 +7°C° 0 mm 5 mps 574 mmHg 47%
    16:00 +7°C° 0 mm 5 mps 574 mmHg 48%
    17:00 +5°C° 0 mm 4 mps 573 mmHg 55%
    18:00 +4°C° 0 mm 4 mps 572 mmHg 63%
    19:00 +3°C° 0 mm 3 mps 572 mmHg 71%
    20:00 +2°C° 0 mm 3 mps 572 mmHg 76%
    21:00 +1°C° 0 mm 3 mps 572 mmHg 82%
    22:00 0°C° 0 mm 3 mps 572 mmHg 87%
    23:00 0°C° 0 mm 3 mps 572 mmHg 88%

    26 April, Friday

    Time Temperature Precipitation Wind Pressure Humidity
    00:00 -1°C° 0 mm 3 mps 571 mmHg 89%
    01:00 -1°C° 0 mm 3 mps 571 mmHg 89%
    02:00 -1°C° 0 mm 3 mps 571 mmHg 89%
    03:00 -1°C° 0 mm 3 mps 571 mmHg 89%
    04:00 -2°C° 0 mm 3 mps 571 mmHg 89%
    05:00 -1°C° 0 mm 3 mps 571 mmHg 85%
    06:00 0°C° 0 mm 3 mps 572 mmHg 80%
    07:00 +2°C° 0 mm 2 mps 572 mmHg 75%
    08:00 +2°C° 0.1 mm 2 mps 573 mmHg 71%
    09:00 +3°C° 0.1 mm 2 mps 574 mmHg 67%
    10:00 +4°C° 0.1 mm 2 mps 574 mmHg 63%
    11:00 +2°C° 1.8 mm 2 mps 574 mmHg 72%
    12:00 0°C° 1.8 mm 3 mps 573 mmHg 82%
    13:00 -2°C° 1.8 mm 3 mps 572 mmHg 91%
    14:00 -4°C° 2.2 mm 3 mps 572 mmHg 92%
    15:00 -5°C° 2.2 mm 3 mps 571 mmHg 93%
    16:00 -6°C° 2.2 mm 3 mps 571 mmHg 93%
    17:00 -6°C° 1 mm 3 mps 571 mmHg 94%
    18:00 -6°C° 1 mm 2 mps 571 mmHg 95%
    19:00 -6°C° 1 mm 2 mps 572 mmHg 95%
    20:00 -6°C° 0.3 mm 2 mps 572 mmHg 95%
    21:00 -6°C° 0.3 mm 2 mps 572 mmHg 95%
    22:00 -7°C° 0.3 mm 2 mps 572 mmHg 95%
    23:00 -7°C° 0.4 mm 2 mps 573 mmHg 95%
    Show more